Location: Cucq
(50.4773°N, 1.6202°E)
Time: 04:13:18
(UTC+00:00)

Meteor 1-21 Rocket - Pass Details

Date: 07 August 2020
Orbit: 832 x 908 km, 81.2° (Epoch: 23 September)

Event Time Altitude Azimuth Distance (km) Brightness Sun altitude
Rises 03:09:07 0° 347° (NNW) 3,418 7.8 -11.3°
Reaches altitude 10° 03:11:33 10° 347° (NNW) 2,471 7.0 -11.0°
Maximum altitude 03:17:09 86° 261° (W) 844 4.2 -10.4°
Drops below altitude 10° 03:22:40 10° 172° (S) 2,437 6.3 -9.7°
Sets 03:25:03 0° 171° (S) 3,367 7.0 -9.5°
